Location: Unspecified
(0.0000°N, 0.0000°E)
Time: 06:35:25
(UTC+00:00)

Vanguard 2 Rocket - Pass Details

Date: 24 November 2019
Orbit: 554 x 3326 km, 32.9° (Epoch: 11 December)

Event Time Altitude Azimuth Distance (km) Brightness Sun altitude
Rises 08:48:31 0° 285° (WNW) 5,003 10.2 41.9°
Reaches altitude 10° 08:51:30 10° 278° (W) 4,336 10.0 42.6°
Maximum altitude 09:03:43 47° 208° (SSW) 3,300 10.3 45.2°
Drops below altitude 10° 09:22:05 10° 140° (SE) 6,258 12.0 49.2°
Sets 09:27:34 0° 134° (SE) 7,315 12.1 50.3°
